| time (UTC) | temp C | wind direction | speed KPH | gust KPH | rain 1hr cm | rain 24hr cm | rain mn cm | humidity % | barometer mb |
| 20260504120104 | 9 | 0 | 0.0 | 0.0 | 0.00 | 0.00 | 0.00 | 95 | 1018.3 |
| 20260504110559 | 7 | 0 | 0.0 | 0.0 | 0.00 | 0.00 | 0.00 | 94 | 1018.2 |
| 20260504100557 | 8 | 0 | 0.0 | 0.0 | 0.00 | 0.00 | 0.00 | 95 | 1018.1 |
| 20260504081557 | 9 | 148 | 0.0 | 0.0 | 0.00 | 0.00 | 0.00 | 92 | 1018.2 |
| 20260504081101 | 9 | 0 | 0.0 | 0.0 | 0.00 | 0.00 | 0.00 | 92 | 1018.4 |
| 20260504080557 | 9 | 0 | 0.0 | 0.0 | 0.00 | 0.00 | 0.00 | 92 | 1018.4 |
| 20260504050558 | 11 | 0 | 0.0 | 0.0 | 0.00 | 0.00 | 0.00 | 82 | 1019.6 |
| 20260504045557 | 12 | 0 | 0.0 | 0.0 | 0.00 | 0.00 | 0.00 | 79 | 1019.5 |
| 20260504045058 | 12 | 0 | 0.0 | 0.0 | 0.00 | 0.00 | 0.00 | 82 | 1019.7 |
| 20260504044603 | 12 | 0 | 0.0 | 0.0 | 0.00 | 0.00 | 0.00 | 81 | 1019.6 |
| 20260504044100 | 12 | 0 | 0.0 | 0.0 | 0.00 | 0.00 | 0.00 | 81 | 1019.5 |
| 20260504043600 | 12 | 0 | 0.0 | 0.0 | 0.00 | 0.00 | 0.00 | 80 | 1019.5 |
| 20260504043101 | 12 | 0 | 0.0 | 0.0 | 0.00 | 0.00 | 0.00 | 82 | 1019.8 |
| 20260504042600 | 12 | 0 | 0.0 | 0.0 | 0.00 | 0.00 | 0.00 | 86 | 1019.8 |
| 20260504042102 | 12 | 0 | 0.0 | 0.0 | 0.00 | 0.00 | 0.00 | 80 | 1019.8 |
| 20260504041556 | 12 | 0 | 0.0 | 0.0 | 0.00 | 0.00 | 0.00 | 79 | 1019.8 |
| 20260504041059 | 12 | 0 | 0.0 | 0.0 | 0.00 | 0.00 | 0.00 | 76 | 1020.0 |
| 20260504040559 | 12 | 0 | 0.0 | 0.0 | 0.00 | 0.00 | 0.00 | 76 | 1019.9 |
| 20260504040106 | 12 | 0 | 0.0 | 0.0 | 0.00 | 0.00 | 0.00 | 76 | 1019.8 |
| 20260504035557 | 12 | 0 | 0.0 | 0.0 | 0.00 | 0.00 | 0.00 | 74 | 1019.9 |
| 20260504035058 | 12 | 0 | 0.0 | 0.0 | 0.00 | 0.00 | 0.00 | 72 | 1019.8 |
| 20260504034616 | 12 | 0 | 0.0 | 0.0 | 0.00 | 0.00 | 0.00 | 81 | 1019.8 |
| 20260504034058 | 12 | 0 | 0.0 | 0.0 | 0.00 | 0.00 | 0.00 | 81 | 1019.9 |
| 20260504033602 | 12 | 0 | 0.0 | 0.0 | 0.00 | 0.00 | 0.00 | 73 | 1019.9 |
| 20260504033127 | 12 | 0 | 0.0 | 0.0 | 0.00 | 0.00 | 0.00 | 75 | 1019.9 |
| 20260504032600 | 13 | 0 | 0.0 | 0.0 | 0.00 | 0.00 | 0.00 | 78 | 1019.9 |
| 20260504032100 | 13 | 0 | 0.0 | 0.0 | 0.00 | 0.00 | 0.00 | 77 | 1019.9 |
| 20260504031558 | 13 | 0 | 0.0 | 0.0 | 0.00 | 0.00 | 0.00 | 79 | 1019.8 |
| 20260504031058 | 13 | 0 | 0.0 | 0.0 | 0.00 | 0.00 | 0.00 | 76 | 1019.8 |
| 20260504030557 | 13 | 0 | 0.0 | 0.0 | 0.00 | 0.00 | 0.00 | 75 | 1019.9 |
| 20260504030104 | 13 | 0 | 0.0 | 0.0 | 0.00 | 0.00 | 0.00 | 77 | 1019.9 |
| 20260504025558 | 13 | 0 | 0.0 | 0.0 | 0.00 | 0.00 | 0.00 | 75 | 1019.8 |
| 20260504025058 | 13 | 0 | 0.0 | 0.0 | 0.00 | 0.00 | 0.00 | 77 | 1019.8 |
| 20260504024558 | 13 | 0 | 0.0 | 0.0 | 0.00 | 0.00 | 0.00 | 77 | 1019.6 |
| 20260504024102 | 13 | 0 | 0.0 | 0.0 | 0.00 | 0.00 | 0.00 | 79 | 1019.6 |
| 20260504023558 | 13 | 0 | 0.0 | 0.0 | 0.00 | 0.00 | 0.00 | 80 | 1019.5 |
| 20260504023105 | 13 | 0 | 0.0 | 0.0 | 0.00 | 0.00 | 0.00 | 76 | 1019.6 |
| 20260504022558 | 13 | 0 | 0.0 | 0.0 | 0.00 | 0.00 | 0.00 | 71 | 1019.7 |
| 20260504022100 | 13 | 0 | 0.0 | 0.0 | 0.00 | 0.00 | 0.00 | 69 | 1019.6 |
| 20260504021557 | 13 | 0 | 0.0 | 0.0 | 0.00 | 0.00 | 0.00 | 73 | 1019.6 |
| 20260504021058 | 13 | 0 | 0.0 | 0.0 | 0.00 | 0.00 | 0.00 | 72 | 1019.6 |
| 20260504020558 | 13 | 0 | 0.0 | 0.0 | 0.00 | 0.00 | 0.00 | 72 | 1019.7 |
| 20260504020100 | 13 | 0 | 0.0 | 0.0 | 0.00 | 0.00 | 0.00 | 73 | 1019.5 |
| 20260504015558 | 14 | 0 | 0.0 | 0.0 | 0.00 | 0.00 | 0.00 | 71 | 1019.5 |
| 20260504015101 | 14 | 0 | 0.0 | 0.0 | 0.00 | 0.00 | 0.00 | 71 | 1019.3 |
| 20260504014557 | 14 | 0 | 0.0 | 0.0 | 0.00 | 0.00 | 0.00 | 72 | 1019.2 |
| 20260504014057 | 14 | 0 | 0.0 | 0.0 | 0.00 | 0.00 | 0.00 | 74 | 1019.2 |
| 20260504013557 | 15 | 0 | 0.0 | 0.0 | 0.00 | 0.00 | 0.00 | 79 | 1019.1 |
| 20260504013109 | 15 | 0 | 0.0 | 0.0 | 0.00 | 0.00 | 0.00 | 78 | 1019.1 |
| 20260504012601 | 15 | 0 | 0.0 | 0.0 | 0.00 | 0.00 | 0.00 | 75 | 1018.9 |
| 20260504012100 | 15 | 0 | 0.0 | 0.0 | 0.00 | 0.00 | 0.00 | 75 | 1018.9 |
| 20260504011556 | 15 | 0 | 0.0 | 0.0 | 0.00 | 0.00 | 0.00 | 75 | 1018.8 |
| 20260504011057 | 15 | 0 | 0.0 | 0.0 | 0.00 | 0.00 | 0.00 | 67 | 1018.9 |
| 20260504010558 | 15 | 0 | 0.0 | 0.0 | 0.00 | 0.00 | 0.00 | 67 | 1019.0 |
| 20260504010113 | 16 | 0 | 0.0 | 0.0 | 0.00 | 0.00 | 0.00 | 71 | 1018.9 |
| 20260504005601 | 16 | 0 | 0.0 | 0.0 | 0.00 | 0.00 | 0.00 | 68 | 1018.9 |
| 20260504005058 | 16 | 0 | 0.0 | 0.0 | 0.00 | 0.00 | 0.00 | 68 | 1018.9 |
| 20260504004624 | 16 | 0 | 0.0 | 0.0 | 0.00 | 0.00 | 0.00 | 67 | 1018.6 |
| 20260504004059 | 17 | 0 | 0.0 | 0.0 | 0.00 | 0.00 | 0.00 | 63 | 1018.5 |
| 20260504003601 | 17 | 0 | 0.0 | 0.0 | 0.00 | 0.00 | 0.00 | 63 | 1018.4 |
| 20260504003056 | 17 | 0 | 0.0 | 0.0 | 0.00 | 0.00 | 0.00 | 62 | 1018.5 |
| 20260504002558 | 18 | 0 | 0.0 | 0.0 | 0.00 | 0.00 | 0.00 | 64 | 1018.4 |
| 20260504002058 | 18 | 0 | 0.0 | 0.0 | 0.00 | 0.00 | 0.00 | 61 | 1018.3 |
| 20260504001612 | 18 | 0 | 0.0 | 0.0 | 0.00 | 0.00 | 0.00 | 55 | 1018.3 |
| 20260504001058 | 19 | 0 | 0.0 | 0.0 | 0.00 | 0.00 | 0.00 | 55 | 1018.3 |
| 20260504000558 | 20 | 0 | 0.0 | 0.0 | 0.00 | 0.00 | 0.00 | 50 | 1018.2 |
| 20260504000059 | 20 | 0 | 0.0 | 1.6 | 0.00 | 0.00 | 0.00 | 49 | 1018.1 |
| 20260503235559 | 21 | 0 | 0.0 | 1.6 | 0.00 | 0.00 | 0.00 | 47 | 1018.2 |
| 20260503235059 | 21 | 0 | 0.0 | 1.6 | 0.00 | 0.00 | 0.00 | 47 | 1018.2 |
| 20260503234557 | 21 | 287 | 0.0 | 1.6 | 0.00 | 0.00 | 0.00 | 46 | 1018.2 |
| 20260503234059 | 21 | 0 | 0.0 | 3.2 | 0.00 | 0.00 | 0.00 | 46 | 1018.1 |
| 20260503233559 | 21 | 0 | 0.0 | 4.8 | 0.00 | 0.00 | 0.00 | 42 | 1018.1 |
| 20260503233058 | 21 | 350 | 0.0 | 4.8 | 0.00 | 0.00 | 0.00 | 44 | 1018.2 |
| 20260503232559 | 22 | 343 | 0.0 | 1.6 | 0.00 | 0.00 | 0.00 | 44 | 1018.2 |
| 20260503232058 | 22 | 8 | 0.0 | 3.2 | 0.00 | 0.00 | 0.00 | 38 | 1018.3 |
| 20260503231558 | 22 | 0 | 0.0 | 3.2 | 0.00 | 0.00 | 0.00 | 44 | 1018.3 |
| 20260503231058 | 22 | 0 | 0.0 | 3.2 | 0.00 | 0.00 | 0.00 | 37 | 1018.4 |
| 20260503230559 | 23 | 302 | 0.0 | 3.2 | 0.00 | 0.00 | 0.00 | 37 | 1018.5 |
| 20260503225559 | 23 | 3 | 1.6 | 4.8 | 0.00 | 0.00 | 0.00 | 41 | 1018.3 |
| 20260503225059 | 23 | 4 | 1.6 | 4.8 | 0.00 | 0.00 | 0.00 | 42 | 1018.4 |
| 20260503224600 | 23 | 49 | 1.6 | 4.8 | 0.00 | 0.00 | 0.00 | 41 | 1018.3 |
| 20260503224100 | 23 | 340 | 1.6 | 3.2 | 0.00 | 0.00 | 0.00 | 40 | 1018.2 |
| 20260503223600 | 23 | 6 | 0.0 | 3.2 | 0.00 | 0.00 | 0.00 | 40 | 1018.2 |
| 20260503223103 | 23 | 49 | 0.0 | 3.2 | 0.00 | 0.00 | 0.00 | 41 | 1018.3 |
| 20260503222559 | 23 | 62 | 1.6 | 4.8 | 0.00 | 0.00 | 0.00 | 40 | 1018.2 |
| 20260503222058 | 23 | 357 | 1.6 | 4.8 | 0.00 | 0.00 | 0.00 | 40 | 1018.2 |
| 20260503221602 | 23 | 356 | 1.6 | 6.4 | 0.00 | 0.00 | 0.00 | 40 | 1018.2 |
| 20260503221059 | 23 | 318 | 0.0 | 6.4 | 0.00 | 0.00 | 0.00 | 41 | 1018.2 |
| 20260503220559 | 23 | 12 | 3.2 | 6.4 | 0.00 | 0.00 | 0.00 | 35 | 1018.2 |
| 20260503220059 | 23 | 59 | 1.6 | 4.8 | 0.00 | 0.00 | 0.00 | 41 | 1018.3 |
| 20260503215557 | 23 | 23 | 1.6 | 6.4 | 0.00 | 0.00 | 0.00 | 41 | 1018.4 |
| 20260503215058 | 23 | 334 | 1.6 | 6.4 | 0.00 | 0.00 | 0.00 | 40 | 1018.4 |
| 20260503214601 | 23 | 287 | 1.6 | 6.4 | 0.00 | 0.00 | 0.00 | 39 | 1018.4 |
| 20260503214100 | 23 | 313 | 1.6 | 6.4 | 0.00 | 0.00 | 0.00 | 39 | 1018.5 |
| 20260503213558 | 23 | 59 | 1.6 | 6.4 | 0.00 | 0.00 | 0.00 | 37 | 1018.5 |
| 20260503213108 | 23 | 2 | 1.6 | 6.4 | 0.00 | 0.00 | 0.00 | 39 | 1018.6 |
| 20260503212558 | 23 | 360 | 1.6 | 6.4 | 0.00 | 0.00 | 0.00 | 35 | 1018.6 |
| 20260503212058 | 23 | 328 | 1.6 | 4.8 | 0.00 | 0.00 | 0.00 | 41 | 1018.7 |
| 20260503211559 | 23 | 348 | 1.6 | 4.8 | 0.00 | 0.00 | 0.00 | 39 | 1018.8 |
| 20260503211057 | 23 | 11 | 1.6 | 8.0 | 0.00 | 0.00 | 0.00 | 42 | 1018.8 |
| 20260503210603 | 23 | 351 | 1.6 | 8.0 | 0.00 | 0.00 | 0.00 | 42 | 1018.9 |
| 20260503210112 | 23 | 0 | 1.6 | 8.0 | 0.00 | 0.00 | 0.00 | 41 | 1018.9 |
| 20260503205559 | 23 | 352 | 4.8 | 8.0 | 0.00 | 0.00 | 0.00 | 39 | 1018.9 |
| 20260503205059 | 23 | 55 | 0.0 | 14.5 | 0.00 | 0.00 | 0.00 | 44 | 1018.9 |
| 20260503204611 | 23 | 91 | 3.2 | 14.5 | 0.00 | 0.00 | 0.00 | 41 | 1019.0 |
| 20260503204058 | 23 | 273 | 4.8 | 14.5 | 0.00 | 0.00 | 0.00 | 39 | 1019.1 |
| 20260503203603 | 23 | 338 | 3.2 | 8.0 | 0.00 | 0.00 | 0.00 | 40 | 1019.0 |
| 20260503203106 | 23 | 309 | 3.2 | 9.7 | 0.00 | 0.00 | 0.00 | 40 | 1019.1 |
| 20260503202600 | 23 | 8 | 3.2 | 9.7 | 0.00 | 0.00 | 0.00 | 40 | 1019.1 |
| 20260503202058 | 23 | 354 | 3.2 | 9.7 | 0.00 | 0.00 | 0.00 | 43 | 1019.2 |
| 20260503201604 | 23 | 0 | 1.6 | 9.7 | 0.00 | 0.00 | 0.00 | 36 | 1019.4 |
| 20260503201058 | 23 | 246 | 3.2 | 8.0 | 0.00 | 0.00 | 0.00 | 39 | 1019.5 |
| 20260503200558 | 23 | 347 | 3.2 | 8.0 | 0.00 | 0.00 | 0.00 | 40 | 1019.5 |
| 20260503200101 | 23 | 312 | 4.8 | 12.9 | 0.00 | 0.00 | 0.00 | 37 | 1019.6 |
| 20260503195555 | 23 | 301 | 3.2 | 12.9 | 0.00 | 0.00 | 0.00 | 35 | 1019.7 |
| 20260503195057 | 23 | 269 | 1.6 | 12.9 | 0.00 | 0.00 | 0.00 | 40 | 1019.7 |
| 20260503194556 | 23 | 43 | 1.6 | 8.0 | 0.00 | 0.00 | 0.00 | 39 | 1019.8 |
| 20260503194058 | 23 | 15 | 1.6 | 6.4 | 0.00 | 0.00 | 0.00 | 44 | 1019.9 |
| 20260503193558 | 23 | 345 | 1.6 | 4.8 | 0.00 | 0.00 | 0.00 | 41 | 1020.1 |
| 20260503193102 | 23 | 30 | 1.6 | 9.7 | 0.00 | 0.00 | 0.00 | 43 | 1020.1 |
| 20260503192558 | 23 | 321 | 3.2 | 9.7 | 0.00 | 0.00 | 0.00 | 42 | 1020.2 |
| 20260503192057 | 23 | 293 | 3.2 | 8.0 | 0.00 | 0.00 | 0.00 | 40 | 1020.2 |
| 20260503191620 | 23 | 245 | 3.2 | 9.7 | 0.00 | 0.00 | 0.00 | 42 | 1020.2 |
| 20260503191055 | 23 | 356 | 3.2 | 9.7 | 0.00 | 0.00 | 0.00 | 44 | 1020.2 |
| 20260503190556 | 23 | 299 | 1.6 | 8.0 | 0.00 | 0.00 | 0.00 | 39 | 1020.3 |
| 20260503190056 | 22 | 321 | 3.2 | 12.9 | 0.00 | 0.00 | 0.00 | 41 | 1020.4 |
| 20260503185601 | 22 | 352 | 3.2 | 12.9 | 0.00 | 0.00 | 0.00 | 41 | 1020.5 |
| 20260503185057 | 22 | 11 | 4.8 | 12.9 | 0.00 | 0.00 | 0.00 | 41 | 1020.5 |
| 20260503184559 | 23 | 325 | 1.6 | 6.4 | 0.00 | 0.00 | 0.00 | 39 | 1020.6 |
| 20260503184103 | 23 | 40 | 1.6 | 9.7 | 0.00 | 0.00 | 0.00 | 39 | 1020.5 |
| 20260503183558 | 23 | 340 | 3.2 | 9.7 | 0.00 | 0.00 | 0.00 | 40 | 1020.6 |
| 20260503183112 | 23 | 357 | 1.6 | 6.4 | 0.00 | 0.00 | 0.00 | 39 | 1020.6 |
| 20260503182555 | 23 | 51 | 1.6 | 9.7 | 0.00 | 0.00 | 0.00 | 41 | 1020.5 |
| 20260503182057 | 23 | 341 | 3.2 | 9.7 | 0.00 | 0.00 | 0.00 | 39 | 1020.6 |
| 20260503181602 | 22 | 345 | 3.2 | 6.4 | 0.00 | 0.00 | 0.00 | 42 | 1020.5 |
| 20260503181058 | 22 | 40 | 1.6 | 6.4 | 0.00 | 0.00 | 0.00 | 44 | 1020.5 |
| 20260503180559 | 22 | 352 | 3.2 | 6.4 | 0.00 | 0.00 | 0.00 | 44 | 1020.6 |
| 20260503180056 | 22 | 45 | 1.6 | 6.4 | 0.00 | 0.00 | 0.00 | 40 | 1020.6 |
| 20260503175557 | 22 | 282 | 3.2 | 6.4 | 0.00 | 0.00 | 0.00 | 40 | 1020.7 |
| 20260503175056 | 22 | 298 | 3.2 | 6.4 | 0.00 | 0.00 | 0.00 | 41 | 1020.8 |
| 20260503174604 | 22 | 269 | 3.2 | 6.4 | 0.00 | 0.00 | 0.00 | 45 | 1021.0 |
| 20260503174057 | 22 | 331 | 1.6 | 8.0 | 0.00 | 0.00 | 0.00 | 46 | 1021.0 |
| 20260503173557 | 21 | 30 | 3.2 | 8.0 | 0.00 | 0.00 | 0.00 | 44 | 1021.0 |
| 20260503173117 | 21 | 0 | 1.6 | 8.0 | 0.00 | 0.00 | 0.00 | 44 | 1021.2 |
| 20260503172559 | 22 | 323 | 1.6 | 8.0 | 0.00 | 0.00 | 0.00 | 45 | 1021.4 |
| 20260503172057 | 21 | 35 | 3.2 | 6.4 | 0.00 | 0.00 | 0.00 | 43 | 1021.4 |
| 20260503171600 | 21 | 294 | 3.2 | 6.4 | 0.00 | 0.00 | 0.00 | 41 | 1021.4 |
| 20260503171058 | 21 | 117 | 3.2 | 6.4 | 0.00 | 0.00 | 0.00 | 43 | 1021.5 |
| 20260503170557 | 21 | 42 | 1.6 | 6.4 | 0.00 | 0.00 | 0.00 | 41 | 1021.7 |
| 20260503150601 | 18 | 106 | 0.0 | 3.2 | 0.00 | 0.00 | 0.00 | 56 | 1022.4 |
| 20260503131058 | 13 | 0 | 0.0 | 0.0 | 0.00 | 0.03 | 0.00 | 77 | 1021.3 |
| 20260503130558 | 13 | 0 | 0.0 | 0.0 | 0.00 | 0.03 | 0.00 | 83 | 1021.4 |